Time,TemperatureF,DewpointF,PressureIn,WindDirection,WindDirectionDegrees,WindSpeedMPH,WindSpeedGustMPH,Humidity,HourlyPrecipIn,Conditions,Clouds,dailyrainin,SolarRadiationWatts/m^2,SoftwareType,DateUTC
2013-09-09 00:00:00,62.9,59.6,29.93,WSW,252,0.0,0.0,89,0.00,OVC,,0.02,0.0,WeatherDisplay:10.37,2013-09-09 05:00:00,
2013-09-09 00:05:00,62.9,59.6,29.93,WSW,252,0.0,2.3,89,0.00,RA,,0.00,0.0,WeatherDisplay:10.37,2013-09-09 05:05:00,
2013-09-09 00:10:00,62.9,59.6,29.93,NNW,334,0.2,2.3,89,0.00,RA,,0.00,0.0,WeatherDisplay:10.37,2013-09-09 05:10:00,
2013-09-09 00:15:00,62.9,59.6,29.93,NNW,334,0.0,0.0,89,0.00,OVC,,0.00,0.0,WeatherDisplay:10.37,2013-09-09 05:15:00,
2013-09-09 00:20:00,62.9,59.6,29.93,East,101,0.7,2.3,89,0.00,OVC,,0.00,0.0,WeatherDisplay:10.37,2013-09-09 05:20:00,
2013-09-09 00:25:00,62.9,59.6,29.93,SE,139,0.7,2.0,89,0.00,OVC,,0.00,0.0,WeatherDisplay:10.37,2013-09-09 05:25:00,
2013-09-09 00:30:00,62.9,59.6,29.93,SE,139,0.0,0.0,89,0.00,OVC,,0.00,0.0,WeatherDisplay:10.37,2013-09-09 05:30:00,
2013-09-09 00:35:00,62.9,59.6,29.93,SE,142,0.7,2.3,89,0.00,OVC,,0.00,0.0,WeatherDisplay:10.37,2013-09-09 05:35:00,
2013-09-09 00:40:00,62.9,59.6,29.93,SE,141,0.8,3.5,89,0.00,OVC,,0.00,0.0,WeatherDisplay:10.37,2013-09-09 05:40:00,
2013-09-09 00:45:00,62.9,59.6,29.93,North,5,0.1,1.2,89,0.00,OVC,,0.00,0.0,WeatherDisplay:10.37,2013-09-09 05:45:00,
2013-09-09 00:50:00,62.9,59.6,29.93,North,5,0.0,0.0,89,0.00,OVC,,0.00,0.0,WeatherDisplay:10.37,2013-09-09 05:50:00,
2013-09-09 00:55:00,62.9,59.6,29.93,North,5,0.1,1.2,89,0.00,OVC,,0.00,0.0,WeatherDisplay:10.37,2013-09-09 05:55:00,
2013-09-09 01:00:00,62.9,59.6,29.93,ESE,107,0.8,2.3,89,0.00,OVC,,0.00,0.0,WeatherDisplay:10.37,2013-09-09 06:00:00,
2013-09-09 01:05:00,63.0,59.7,29.92,ESE,112,0.1,1.2,89,0.00,OVC,,0.00,0.0,WeatherDisplay:10.37,2013-09-09 06:05:00,
2013-09-09 01:10:00,63.1,59.8,29.92,ESE,113,0.0,0.0,89,0.00,OVC,,0.00,0.0,WeatherDisplay:10.37,2013-09-09 06:10:00,
2013-09-09 01:15:00,63.1,59.8,29.92,ESE,113,0.2,1.2,89,0.00,OVC,,0.00,0.0,WeatherDisplay:10.37,2013-09-09 06:15:00,
2013-09-09 01:20:00,63.1,59.8,29.92,SE,124,0.6,2.0,89,0.00,OVC,,0.00,0.0,WeatherDisplay:10.37,2013-09-09 06:20:00,
2013-09-09 01:25:00,63.2,59.9,29.92,SE,132,0.9,3.0,89,0.00,OVC,,0.00,0.0,WeatherDisplay:10.37,2013-09-09 06:25:00,
2013-09-09 01:30:00,63.2,59.9,29.92,SSE,153,2.0,3.5,89,0.00,OVC,,0.00,0.0,WeatherDisplay:10.37,2013-09-09 06:30:00,
2013-09-09 01:35:00,63.2,60.2,29.92,SSE,161,0.1,1.2,90,0.00,OVC,,0.00,0.0,WeatherDisplay:10.37,2013-09-09 06:35:00,
2013-09-09 01:40:00,63.2,60.2,29.92,SSW,196,2.4,4.0,90,0.00,OVC,,0.00,0.0,WeatherDisplay:10.37,2013-09-09 06:40:00,
2013-09-09 01:45:00,63.2,60.2,29.91,SSW,196,1.7,3.5,90,0.00,OVC,,0.00,0.0,WeatherDisplay:10.37,2013-09-09 06:45:00,
2013-09-09 01:50:00,63.3,60.3,29.91,SSW,196,1.8,3.5,90,0.00,OVC,,0.00,0.0,WeatherDisplay:10.37,2013-09-09 06:50:00,
2013-09-09 01:55:00,63.3,60.3,29.91,SSW,213,0.5,4.0,90,0.00,OVC,,0.00,0.0,WeatherDisplay:10.37,2013-09-09 06:55:00,
2013-09-09 02:00:00,63.3,60.3,29.91,SSW,213,0.4,2.0,90,0.00,OVC,,0.00,0.0,WeatherDisplay:10.37,2013-09-09 07:00:00,
2013-09-09 02:05:00,63.3,60.3,29.91,SSW,213,0.0,1.2,90,0.00,OVC,,0.00,0.0,WeatherDisplay:10.37,2013-09-09 07:05:00,
2013-09-09 02:10:00,63.3,60.3,29.90,SSW,213,1.4,3.5,90,0.00,OVC,,0.00,0.0,WeatherDisplay:10.37,2013-09-09 07:10:00,
2013-09-09 02:15:00,63.4,60.4,29.90,SSW,208,2.1,6.0,90,0.00,OVC,,0.00,0.0,WeatherDisplay:10.37,2013-09-09 07:15:00,
2013-09-09 02:20:00,63.3,60.3,29.90,SSW,208,0.6,2.3,90,0.00,OVC,,0.00,0.0,WeatherDisplay:10.37,2013-09-09 07:20:00,
2013-09-09 02:25:00,63.4,60.4,29.89,SSW,208,0.6,2.3,90,0.00,OVC,,0.00,0.0,WeatherDisplay:10.37,2013-09-09 07:25:00,
2013-09-09 02:30:00,63.4,60.4,29.89,SSW,208,0.8,2.3,90,0.00,OVC,,0.00,0.0,WeatherDisplay:10.37,2013-09-09 07:30:00,
2013-09-09 02:35:00,63.4,60.4,29.89,SSW,208,0.1,1.2,90,0.00,OVC,,0.00,0.0,WeatherDisplay:10.37,2013-09-09 07:35:00,
2013-09-09 02:40:00,63.5,60.8,29.88,SSW,207,0.5,3.0,91,0.00,OVC,,0.00,0.0,WeatherDisplay:10.37,2013-09-09 07:40:00,
2013-09-09 02:45:00,63.6,60.9,29.88,SSW,207,1.0,3.0,91,0.00,OVC,,0.00,0.0,WeatherDisplay:10.37,2013-09-09 07:45:00,
2013-09-09 02:50:00,63.7,61.0,29.88,SSW,201,1.0,3.5,91,0.00,OVC,,0.00,0.0,WeatherDisplay:10.37,2013-09-09 07:50:00,
2013-09-09 02:55:00,63.8,61.1,29.87,ESE,106,1.4,3.5,91,0.00,OVC,,0.00,0.0,WeatherDisplay:10.37,2013-09-09 07:55:00,
2013-09-09 03:00:00,63.9,61.2,29.87,SSE,163,0.5,3.5,91,0.00,OVC,,0.00,0.0,WeatherDisplay:10.37,2013-09-09 08:00:00,
2013-09-09 03:05:00,63.9,61.2,29.87,SW,215,1.2,3.5,91,0.00,OVC,,0.00,0.0,WeatherDisplay:10.37,2013-09-09 08:05:00,
2013-09-09 03:10:00,63.9,61.2,29.87,SSW,210,0.4,1.2,91,0.00,OVC,,0.00,0.0,WeatherDisplay:10.37,2013-09-09 08:10:00,
2013-09-09 03:15:00,63.9,61.5,29.87,SSW,209,1.6,3.0,92,0.00,OVC,,0.00,0.0,WeatherDisplay:10.37,2013-09-09 08:15:00,
2013-09-09 03:20:00,64.0,61.6,29.87,SSW,209,0.8,2.0,92,0.00,OVC,,0.00,0.0,WeatherDisplay:10.37,2013-09-09 08:20:00,
2013-09-09 03:25:00,64.1,62.0,29.87,South,185,1.0,4.0,93,0.00,OVC,,0.00,0.0,WeatherDisplay:10.37,2013-09-09 08:25:00,
2013-09-09 03:30:00,64.1,62.0,29.87,South,184,1.5,4.0,93,0.00,OVC,,0.00,0.0,WeatherDisplay:10.37,2013-09-09 08:30:00,
2013-09-09 03:35:00,64.3,62.2,29.87,SSW,192,0.8,2.3,93,0.00,OVC,,0.00,0.0,WeatherDisplay:10.37,2013-09-09 08:35:00,
2013-09-09 03:40:00,64.4,62.3,29.87,South,178,2.0,3.5,93,0.00,OVC,,0.00,0.0,WeatherDisplay:10.37,2013-09-09 08:40:00,
2013-09-09 03:45:00,64.4,62.3,29.86,South,186,2.0,6.0,93,0.00,OVC,,0.00,0.0,WeatherDisplay:10.37,2013-09-09 08:45:00,
2013-09-09 03:50:00,64.5,62.7,29.86,South,186,1.0,3.5,94,0.00,OVC,,0.00,0.0,WeatherDisplay:10.37,2013-09-09 08:50:00,
2013-09-09 03:55:00,64.5,62.7,29.86,SSW,209,1.1,3.5,94,0.00,OVC,,0.00,0.0,WeatherDisplay:10.37,2013-09-09 08:55:00,
2013-09-09 04:00:00,64.6,62.8,29.86,South,180,2.3,4.0,94,0.00,OVC,,0.00,0.0,WeatherDisplay:10.37,2013-09-09 09:00:00,
2013-09-09 04:05:00,64.6,62.8,29.86,South,173,1.1,4.6,94,0.00,OVC,,0.00,0.0,WeatherDisplay:10.37,2013-09-09 09:05:00,
2013-09-09 04:10:00,64.6,63.1,29.86,South,170,0.7,3.5,95,0.00,OVC,,0.00,0.0,WeatherDisplay:10.37,2013-09-09 09:10:00,
2013-09-09 04:15:00,64.7,63.2,29.86,South,184,1.8,4.0,95,0.00,OVC,,0.00,0.0,WeatherDisplay:10.37,2013-09-09 09:15:00,
2013-09-09 04:20:00,64.7,63.2,29.85,SE,139,0.0,1.2,95,0.00,OVC,,0.00,0.0,WeatherDisplay:10.37,2013-09-09 09:20:00,
2013-09-09 04:25:00,64.7,63.5,29.86,SE,140,1.1,3.5,96,0.00,OVC,,0.00,0.0,WeatherDisplay:10.37,2013-09-09 09:25:00,
2013-09-09 04:30:00,64.7,63.5,29.85,NNE,16,0.9,3.0,96,0.00,OVC,,0.00,0.0,WeatherDisplay:10.37,2013-09-09 09:30:00,
2013-09-09 04:35:00,64.7,63.5,29.85,SSW,209,0.2,3.5,96,0.00,OVC,,0.00,0.0,WeatherDisplay:10.37,2013-09-09 09:35:00,
2013-09-09 04:40:00,64.8,63.6,29.85,SSW,209,0.0,1.0,96,0.00,OVC,,0.00,0.0,WeatherDisplay:10.37,2013-09-09 09:40:00,
2013-09-09 04:45:00,64.9,63.7,29.86,SSW,209,0.3,1.2,96,0.00,OVC,,0.00,0.0,WeatherDisplay:10.37,2013-09-09 09:45:00,
2013-09-09 04:50:00,65.0,63.8,29.86,SSW,209,0.2,2.0,96,0.00,OVC,,0.00,0.0,WeatherDisplay:10.37,2013-09-09 09:50:00,
2013-09-09 04:55:00,65.1,63.9,29.86,SSW,209,2.0,4.0,96,0.00,OVC,,0.00,0.0,WeatherDisplay:10.37,2013-09-09 09:55:00,
2013-09-09 05:00:00,65.1,63.9,29.86,South,173,2.4,4.0,96,0.00,OVC,,0.00,0.0,WeatherDisplay:10.37,2013-09-09 10:00:00,
2013-09-09 05:05:00,65.2,64.0,29.86,SSW,195,3.3,5.0,96,0.00,OVC,,0.00,0.0,WeatherDisplay:10.37,2013-09-09 10:05:00,
2013-09-09 05:10:00,65.2,64.0,29.86,South,190,1.0,2.3,96,0.00,OVC,,0.00,0.0,WeatherDisplay:10.37,2013-09-09 10:10:00,
2013-09-09 05:15:00,65.2,64.0,29.85,South,190,1.5,4.0,96,0.00,OVC,,0.00,0.0,WeatherDisplay:10.37,2013-09-09 10:15:00,
2013-09-09 05:20:00,65.3,64.1,29.85,South,190,1.7,3.5,96,0.00,OVC,,0.00,0.0,WeatherDisplay:10.37,2013-09-09 10:20:00,
2013-09-09 05:25:00,65.3,64.4,29.85,South,190,1.4,3.0,97,0.00,OVC,,0.00,0.0,WeatherDisplay:10.37,2013-09-09 10:25:00,
2013-09-09 05:30:00,65.4,64.2,29.85,South,175,1.4,4.0,96,0.00,OVC,,0.00,0.0,WeatherDisplay:10.37,2013-09-09 10:30:00,
2013-09-09 05:35:00,65.4,64.2,29.85,South,175,0.1,2.3,96,0.00,OVC,,0.00,0.0,WeatherDisplay:10.37,2013-09-09 10:35:00,
2013-09-09 05:40:00,65.5,64.3,29.85,SSE,160,0.7,3.5,96,0.00,OVC,,0.00,0.0,WeatherDisplay:10.37,2013-09-09 10:40:00,
2013-09-09 05:45:00,65.6,64.4,29.85,SSW,196,1.9,4.0,96,0.00,OVC,,0.00,0.0,WeatherDisplay:10.37,2013-09-09 10:45:00,
2013-09-09 05:50:00,65.7,64.5,29.85,South,175,1.8,3.5,96,0.00,OVC,,0.00,0.0,WeatherDisplay:10.37,2013-09-09 10:50:00,
2013-09-09 05:55:00,65.8,64.9,29.84,SE,138,1.0,5.0,97,0.00,OVC,,0.00,0.0,WeatherDisplay:10.37,2013-09-09 10:55:00,
2013-09-09 06:00:00,65.9,65.0,29.81,SSE,153,1.1,4.0,97,0.00,OVC,,0.00,0.0,WeatherDisplay:10.37,2013-09-09 11:00:00,
2013-09-09 06:05:00,65.9,65.0,29.81,South,177,5.8,8.0,97,0.00,OVC,,0.00,0.0,WeatherDisplay:10.37,2013-09-09 11:05:00,
2013-09-09 06:10:00,66.0,65.1,29.82,South,189,2.8,5.0,97,0.01,RA,,0.01,0.0,WeatherDisplay:10.37,2013-09-09 11:10:00,
2013-09-09 06:15:00,66.0,65.1,29.80,ENE,62,1.7,5.0,97,0.01,RA,,0.01,0.0,WeatherDisplay:10.37,2013-09-09 11:15:00,
2013-09-09 06:20:00,66.1,65.2,29.79,SSE,166,2.3,5.0,97,0.01,OVC,,0.01,0.0,WeatherDisplay:10.37,2013-09-09 11:20:00,
2013-09-09 06:25:00,66.2,65.3,29.78,SSE,147,1.9,7.0,97,0.01,OVC,,0.01,0.0,WeatherDisplay:10.37,2013-09-09 11:25:00,
2013-09-09 06:30:00,66.3,65.4,29.78,South,191,4.5,7.0,97,0.01,OVC,,0.01,0.0,WeatherDisplay:10.37,2013-09-09 11:30:00,
2013-09-09 06:35:00,66.4,65.5,29.78,SE,136,6.5,9.0,97,0.01,OVC,,0.01,0.0,WeatherDisplay:10.37,2013-09-09 11:35:00,
2013-09-09 06:40:00,66.5,65.6,29.79,SE,132,5.6,9.2,97,0.01,OVC,,0.01,0.0,WeatherDisplay:10.37,2013-09-09 11:40:00,
2013-09-09 06:45:00,66.5,65.6,29.79,SSE,153,3.4,7.0,97,0.01,OVC,,0.01,0.0,WeatherDisplay:10.37,2013-09-09 11:45:00,
2013-09-09 06:50:00,66.6,65.7,29.79,SSE,161,4.5,7.0,97,0.01,OVC,,0.01,0.0,WeatherDisplay:10.37,2013-09-09 11:50:00,
2013-09-09 06:55:00,66.8,65.9,29.80,SSE,163,2.2,4.0,97,0.01,OVC,,0.01,0.0,WeatherDisplay:10.37,2013-09-09 11:55:00,
2013-09-09 07:00:00,67.0,66.1,29.81,South,185,3.3,5.8,97,0.01,OVC,,0.01,0.0,WeatherDisplay:10.37,2013-09-09 12:00:00,
2013-09-09 07:05:00,67.2,67.2,29.81,East,82,3.0,7.0,100,0.01,-RA,,0.02,0.0,WeatherDisplay:10.37,2013-09-09 12:05:00,
2013-09-09 07:10:00,67.2,66.3,29.77,SSE,153,0.2,2.0,97,0.07,-RA,,0.08,0.0,WeatherDisplay:10.37,2013-09-09 12:10:00,
2013-09-09 07:15:00,67.3,66.4,29.78,SSE,168,0.2,1.2,97,0.07,-RA,,0.08,0.0,WeatherDisplay:10.37,2013-09-09 12:15:00,
2013-09-09 07:20:00,67.3,66.4,29.79,South,190,0.0,0.0,97,0.07,-RA,,0.08,0.0,WeatherDisplay:10.37,2013-09-09 12:20:00,
2013-09-09 07:25:00,67.4,66.5,29.79,South,189,0.9,2.3,97,0.07,-RA,,0.08,0.0,WeatherDisplay:10.37,2013-09-09 12:25:00,
2013-09-09 07:30:00,67.5,66.6,29.80,South,189,0.0,0.0,97,0.07,-RA,,0.08,9.0,WeatherDisplay:10.37,2013-09-09 12:30:00,
2013-09-09 07:35:00,67.5,66.6,29.81,South,189,0.0,0.0,97,0.07,-RA,,0.08,14.0,WeatherDisplay:10.37,2013-09-09 12:35:00,
2013-09-09 07:40:00,67.6,66.7,29.83,South,190,1.0,2.3,97,0.07,-RA,,0.08,7.0,WeatherDisplay:10.37,2013-09-09 12:40:00,
2013-09-09 07:45:00,67.6,66.7,29.84,WSW,257,2.0,3.5,97,0.07,-RA,,0.08,0.0,WeatherDisplay:10.37,2013-09-09 12:45:00,
2013-09-09 07:50:00,67.6,66.7,29.84,West,273,2.0,4.6,97,0.07,-RA,,0.08,5.0,WeatherDisplay:10.37,2013-09-09 12:50:00,
2013-09-09 07:55:00,67.6,66.7,29.84,WNW,302,1.0,3.0,97,0.07,-RA,,0.08,5.0,WeatherDisplay:10.37,2013-09-09 12:55:00,
2013-09-09 08:00:00,67.6,66.7,29.83,North,11,3.4,6.0,97,0.07,-RA,,0.08,5.0,WeatherDisplay:10.37,2013-09-09 13:00:00,
2013-09-09 08:05:00,67.4,66.5,29.83,NW,316,0.9,3.5,97,0.07,OVC,,0.08,5.0,WeatherDisplay:10.37,2013-09-09 13:05:00,
2013-09-09 08:10:00,67.3,66.4,29.83,North,5,2.3,3.5,97,0.00,OVC,,0.08,7.0,WeatherDisplay:10.37,2013-09-09 13:10:00,
2013-09-09 08:15:00,67.2,66.3,29.83,NNE,17,2.3,5.0,97,0.00,OVC,,0.08,7.0,WeatherDisplay:10.37,2013-09-09 13:15:00,
2013-09-09 08:20:00,67.2,66.3,29.83,NE,36,2.8,4.0,97,0.00,OVC,,0.08,9.0,WeatherDisplay:10.37,2013-09-09 13:20:00,
2013-09-09 08:25:00,67.1,66.2,29.82,North,5,3.7,7.0,97,0.00,OVC,,0.08,11.0,WeatherDisplay:10.37,2013-09-09 13:25:00,
2013-09-09 08:30:00,67.1,66.2,29.82,ENE,74,3.2,4.0,97,0.00,OVC,,0.08,14.0,WeatherDisplay:10.37,2013-09-09 13:30:00,
2013-09-09 08:35:00,67.1,66.2,29.81,NE,47,1.8,3.5,97,0.00,OVC,,0.08,14.0,WeatherDisplay:10.37,2013-09-09 13:35:00,
2013-09-09 08:40:00,67.1,66.2,29.81,NE,37,1.2,3.5,97,0.00,OVC,,0.08,14.0,WeatherDisplay:10.37,2013-09-09 13:40:00,
2013-09-09 08:45:00,67.1,66.2,29.81,ENE,59,0.8,2.3,97,0.00,OVC,,0.08,14.0,WeatherDisplay:10.37,2013-09-09 13:45:00,
2013-09-09 08:50:00,67.0,66.1,29.81,NNE,12,2.6,4.0,97,0.00,OVC,,0.08,14.0,WeatherDisplay:10.37,2013-09-09 13:50:00,
2013-09-09 08:55:00,67.0,66.1,29.81,NNE,21,2.7,4.0,97,0.00,OVC,,0.08,12.0,WeatherDisplay:10.37,2013-09-09 13:55:00,
2013-09-09 09:00:00,67.0,66.1,29.81,NE,53,1.0,3.5,97,0.00,OVC,,0.08,12.0,WeatherDisplay:10.37,2013-09-09 14:00:00,
2013-09-09 09:05:00,67.0,66.1,29.81,NE,48,0.9,3.5,97,0.00,OVC,,0.08,16.0,WeatherDisplay:10.37,2013-09-09 14:05:00,
2013-09-09 09:10:00,66.9,66.0,29.80,ENE,58,2.5,4.0,97,0.00,OVC,,0.08,23.0,WeatherDisplay:10.37,2013-09-09 14:10:00,
2013-09-09 09:15:00,66.9,66.0,29.79,NE,40,1.2,3.5,97,0.00,OVC,,0.08,25.0,WeatherDisplay:10.37,2013-09-09 14:15:00,
2013-09-09 09:20:00,66.9,66.0,29.79,NNE,25,3.0,5.0,97,0.00,OVC,,0.08,25.0,WeatherDisplay:10.37,2013-09-09 14:20:00,
2013-09-09 09:25:00,66.9,66.0,29.79,NNE,33,1.0,3.0,97,0.00,OVC,,0.08,30.0,WeatherDisplay:10.37,2013-09-09 14:25:00,
2013-09-09 09:30:00,66.9,66.0,29.79,WSW,257,1.7,7.0,97,0.00,OVC,,0.08,46.0,WeatherDisplay:10.37,2013-09-09 14:30:00,
2013-09-09 09:35:00,66.8,65.9,29.79,NE,45,1.7,4.0,97,0.00,OVC,,0.08,33.0,WeatherDisplay:10.37,2013-09-09 14:35:00,
2013-09-09 09:40:00,66.9,66.9,29.79,ENE,63,1.0,3.0,100,0.00,OVC,,0.08,33.0,WeatherDisplay:10.37,2013-09-09 14:40:00,
2013-09-09 09:45:00,67.0,67.0,29.79,East,91,0.8,2.3,100,0.00,OVC,,0.08,40.0,WeatherDisplay:10.37,2013-09-09 14:45:00,
2013-09-09 09:50:00,67.1,67.1,29.79,SE,129,0.3,5.0,100,0.00,OVC,,0.08,56.0,WeatherDisplay:10.37,2013-09-09 14:50:00,
2013-09-09 09:55:00,67.2,67.2,29.78,East,98,1.3,3.5,100,0.00,OVC,,0.08,56.0,WeatherDisplay:10.37,2013-09-09 14:55:00,
2013-09-09 10:00:00,67.2,67.2,29.78,SSE,162,0.3,1.2,100,0.00,OVC,,0.08,56.0,WeatherDisplay:10.37,2013-09-09 15:00:00,
2013-09-09 10:05:00,67.3,67.3,29.78,WNW,302,1.0,2.3,100,0.00,OVC,,0.08,54.0,WeatherDisplay:10.37,2013-09-09 15:05:00,
2013-09-09 10:10:00,67.4,67.4,29.78,NNW,338,1.3,2.3,100,0.00,OVC,,0.08,53.0,WeatherDisplay:10.37,2013-09-09 15:10:00,
2013-09-09 10:15:00,67.6,67.6,29.78,SSE,157,1.9,5.0,100,0.00,OVC,,0.08,62.0,WeatherDisplay:10.37,2013-09-09 15:15:00,
2013-09-09 10:20:00,67.6,67.6,29.78,SSW,202,2.5,4.0,100,0.00,OVC,,0.08,62.0,WeatherDisplay:10.37,2013-09-09 15:20:00,
2013-09-09 10:25:00,67.6,67.6,29.78,South,188,2.0,4.0,100,0.00,OVC,,0.08,58.0,WeatherDisplay:10.37,2013-09-09 15:25:00,
2013-09-09 10:30:00,67.7,67.7,29.78,SSW,205,1.4,4.0,100,0.00,OVC,,0.08,46.0,WeatherDisplay:10.37,2013-09-09 15:30:00,
2013-09-09 10:35:00,67.8,67.8,29.77,SSW,202,1.9,4.0,100,0.00,OVC,,0.08,62.0,WeatherDisplay:10.37,2013-09-09 15:35:00,
2013-09-09 10:40:00,67.9,67.9,29.77,South,175,2.3,4.6,100,0.00,OVC,,0.08,111.0,WeatherDisplay:10.37,2013-09-09 15:40:00,
2013-09-09 10:45:00,68.1,68.1,29.76,SSW,213,2.2,5.0,100,0.00,OVC,,0.08,109.0,WeatherDisplay:10.37,2013-09-09 15:45:00,
2013-09-09 10:50:00,68.1,68.1,29.77,South,182,2.3,5.0,100,0.00,OVC,,0.08,90.0,WeatherDisplay:10.37,2013-09-09 15:50:00,
2013-09-09 10:55:00,68.2,68.2,29.76,South,176,4.7,8.0,100,0.00,OVC,,0.08,93.0,WeatherDisplay:10.37,2013-09-09 15:55:00,
2013-09-09 11:00:00,68.4,68.4,29.75,South,175,2.2,5.0,100,0.00,OVC,,0.08,116.0,WeatherDisplay:10.37,2013-09-09 16:00:00,
2013-09-09 11:05:00,68.5,68.5,29.75,SSE,163,3.4,7.0,100,0.00,OVC,,0.08,95.0,WeatherDisplay:10.37,2013-09-09 16:05:00,
2013-09-09 11:10:00,68.7,68.7,29.75,South,179,3.7,8.1,100,0.00,OVC,,0.08,120.0,WeatherDisplay:10.37,2013-09-09 16:10:00,
2013-09-09 11:15:00,68.9,68.9,29.75,SW,233,2.0,6.0,100,0.00,OVC,,0.08,86.0,WeatherDisplay:10.37,2013-09-09 16:15:00,
2013-09-09 11:20:00,68.9,68.9,29.75,South,191,1.8,6.9,100,0.00,OVC,,0.08,104.0,WeatherDisplay:10.37,2013-09-09 16:20:00,
2013-09-09 11:25:00,69.1,69.1,29.76,South,188,1.7,5.0,100,0.00,OVC,,0.08,118.0,WeatherDisplay:10.37,2013-09-09 16:25:00,
2013-09-09 11:30:00,69.2,69.2,29.76,South,169,5.8,8.1,100,0.00,OVC,,0.08,77.0,WeatherDisplay:10.37,2013-09-09 16:30:00,
2013-09-09 11:35:00,69.4,69.4,29.77,SW,215,4.2,5.0,100,0.00,OVC,,0.08,79.0,WeatherDisplay:10.37,2013-09-09 16:35:00,
2013-09-09 11:40:00,69.4,69.4,29.77,SW,216,1.2,4.0,100,0.00,OVC,,0.08,104.0,WeatherDisplay:10.37,2013-09-09 16:40:00,
2013-09-09 11:45:00,69.5,69.5,29.76,SW,232,1.5,4.0,100,0.00,OVC,,0.08,111.0,WeatherDisplay:10.37,2013-09-09 16:45:00,
2013-09-09 11:50:00,69.6,69.6,29.76,SE,143,4.9,8.1,100,0.00,OVC,,0.08,88.0,WeatherDisplay:10.37,2013-09-09 16:50:00,
2013-09-09 11:55:00,69.6,69.6,29.76,South,190,1.2,3.5,100,0.00,OVC,,0.08,84.0,WeatherDisplay:10.37,2013-09-09 16:55:00,
2013-09-09 12:00:00,69.7,69.7,29.76,East,97,0.9,2.0,100,0.00,OVC,,0.08,109.0,WeatherDisplay:10.37,2013-09-09 17:00:00,
2013-09-09 12:05:00,69.8,69.8,29.76,East,92,2.1,5.0,100,0.00,OVC,,0.08,120.0,WeatherDisplay:10.37,2013-09-09 17:05:00,
2013-09-09 12:10:00,69.8,69.8,29.75,SSE,150,1.8,4.6,100,0.00,OVC,,0.08,111.0,WeatherDisplay:10.37,2013-09-09 17:10:00,
2013-09-09 12:15:00,70.0,70.0,29.75,South,188,2.5,8.1,100,0.00,OVC,,0.08,144.0,WeatherDisplay:10.37,2013-09-09 17:15:00,
2013-09-09 12:20:00,70.1,70.1,29.74,SW,221,2.5,5.0,100,0.00,OVC,,0.08,114.0,WeatherDisplay:10.37,2013-09-09 17:20:00,
2013-09-09 12:25:00,70.2,70.2,29.74,South,186,1.0,3.5,100,0.00,OVC,,0.08,84.0,WeatherDisplay:10.37,2013-09-09 17:25:00,
2013-09-09 12:30:00,70.3,70.3,29.74,South,175,2.7,6.0,100,0.00,OVC,,0.08,95.0,WeatherDisplay:10.37,2013-09-09 17:30:00,
2013-09-09 12:35:00,70.2,70.2,29.75,South,171,1.1,4.0,100,0.00,OVC,,0.08,123.0,WeatherDisplay:10.37,2013-09-09 17:35:00,
2013-09-09 12:40:00,70.3,70.3,29.75,South,173,0.1,1.2,100,0.00,OVC,,0.08,120.0,WeatherDisplay:10.37,2013-09-09 17:40:00,
2013-09-09 12:45:00,70.5,70.5,29.75,SSW,195,1.1,3.5,100,0.00,OVC,,0.08,95.0,WeatherDisplay:10.37,2013-09-09 17:45:00,
2013-09-09 12:50:00,70.5,70.5,29.74,SSW,195,0.9,3.0,100,0.00,OVC,,0.08,142.0,WeatherDisplay:10.37,2013-09-09 17:50:00,
2013-09-09 12:55:00,70.7,70.7,29.74,SSW,195,0.5,3.5,100,0.00,OVC,,0.08,132.0,WeatherDisplay:10.37,2013-09-09 17:55:00,
2013-09-09 13:00:00,70.8,70.8,29.74,SSW,195,0.9,2.3,100,0.00,OVC,,0.08,144.0,WeatherDisplay:10.37,2013-09-09 18:00:00,
2013-09-09 13:05:00,71.1,71.1,29.74,SSW,195,0.2,1.2,100,0.00,OVC,,0.08,172.0,WeatherDisplay:10.37,2013-09-09 18:05:00,
2013-09-09 13:10:00,71.4,71.4,29.73,SSW,193,0.3,2.3,100,0.00,OVC,,0.08,294.0,WeatherDisplay:10.37,2013-09-09 18:10:00,
2013-09-09 13:15:00,72.1,72.1,29.73,SSW,194,0.3,3.5,100,0.00,OVC,,0.08,260.0,WeatherDisplay:10.37,2013-09-09 18:15:00,
2013-09-09 13:20:00,72.4,72.4,29.73,SSW,194,0.4,2.0,100,0.00,OVC,,0.08,410.0,WeatherDisplay:10.37,2013-09-09 18:20:00,
2013-09-09 13:25:00,72.9,72.0,29.73,SSE,151,1.4,2.3,97,0.00,OVC,,0.08,274.0,WeatherDisplay:10.37,2013-09-09 18:25:00,
2013-09-09 13:30:00,73.4,72.5,29.73,South,186,3.2,5.0,97,0.00,OVC,,0.08,353.0,WeatherDisplay:10.37,2013-09-09 18:30:00,
2013-09-09 13:35:00,73.5,72.0,29.73,South,187,0.6,3.5,95,0.00,OVC,,0.08,383.0,WeatherDisplay:10.37,2013-09-09 18:35:00,
2013-09-09 13:40:00,74.2,72.7,29.73,SSW,200,1.2,3.5,95,0.00,OVC,,0.08,383.0,WeatherDisplay:10.37,2013-09-09 18:40:00,
2013-09-09 13:45:00,74.6,72.1,29.73,South,186,1.9,4.6,92,0.00,OVC,,0.08,383.0,WeatherDisplay:10.37,2013-09-09 18:45:00,
2013-09-09 13:50:00,74.9,72.4,29.73,South,180,2.2,5.0,92,0.00,OVC,,0.08,547.0,WeatherDisplay:10.37,2013-09-09 18:50:00,
2013-09-09 13:55:00,75.5,73.3,29.72,South,184,3.1,6.0,93,0.00,OVC,,0.08,316.0,WeatherDisplay:10.37,2013-09-09 18:55:00,
2013-09-09 14:00:00,75.6,72.8,29.73,SE,144,2.0,4.0,91,0.00,OVC,,0.08,390.0,WeatherDisplay:10.37,2013-09-09 19:00:00,
2013-09-09 14:05:00,76.5,73.7,29.72,East,95,1.4,3.5,91,0.00,OVC,,0.08,895.0,WeatherDisplay:10.37,2013-09-09 19:05:00,
2013-09-09 14:10:00,77.3,73.1,29.73,South,182,4.5,8.1,87,0.00,OVC,,0.08,738.0,WeatherDisplay:10.37,2013-09-09 19:10:00,
2013-09-09 14:15:00,77.9,74.1,29.72,South,191,1.5,4.6,88,0.00,OVC,,0.08,710.0,WeatherDisplay:10.37,2013-09-09 19:15:00,
2013-09-09 14:20:00,77.9,73.7,29.72,South,173,2.4,4.6,87,0.00,OVC,,0.08,418.0,WeatherDisplay:10.37,2013-09-09 19:20:00,
2013-09-09 14:25:00,78.1,73.6,29.72,SSE,168,4.9,9.2,86,0.00,OVC,,0.08,677.0,WeatherDisplay:10.37,2013-09-09 19:25:00,
2013-09-09 14:30:00,78.7,73.5,29.71,South,169,1.7,4.0,84,0.00,OVC,,0.08,689.0,WeatherDisplay:10.37,2013-09-09 19:30:00,
2013-09-09 14:35:00,79.4,73.8,29.71,South,177,3.0,6.0,83,0.00,OVC,,0.08,629.0,WeatherDisplay:10.37,2013-09-09 19:35:00,
2013-09-09 14:40:00,80.0,74.0,29.71,South,173,2.7,5.0,82,0.00,OVC,,0.08,721.0,WeatherDisplay:10.37,2013-09-09 19:40:00,
2013-09-09 14:45:00,80.7,74.3,29.71,SSW,194,2.2,4.0,81,0.00,OVC,,0.08,717.0,WeatherDisplay:10.37,2013-09-09 19:45:00,
2013-09-09 14:50:00,81.6,75.6,29.71,SW,215,1.4,3.5,82,0.00,OVC,,0.08,652.0,WeatherDisplay:10.37,2013-09-09 19:50:00,
2013-09-09 14:55:00,81.1,75.1,29.71,SSE,153,1.1,3.5,82,0.00,OVC,,0.08,234.0,WeatherDisplay:10.37,2013-09-09 19:55:00,
2013-09-09 15:00:00,80.8,74.4,29.71,South,182,2.9,5.0,81,0.00,OVC,,0.08,225.0,WeatherDisplay:10.37,2013-09-09 20:00:00,
2013-09-09 15:05:00,81.1,74.3,29.71,South,184,3.5,5.8,80,0.00,SCT,,0.08,689.0,WeatherDisplay:10.37,2013-09-09 20:05:00,
2013-09-09 15:10:00,81.9,74.4,29.71,SSW,207,1.6,4.6,78,0.00,SCT,,0.08,628.0,WeatherDisplay:10.37,2013-09-09 20:10:00,
2013-09-09 15:15:00,82.8,74.5,29.71,SSW,200,3.3,7.0,76,0.00,SCT,,0.08,631.0,WeatherDisplay:10.37,2013-09-09 20:15:00,
2013-09-09 15:20:00,83.6,74.4,29.70,South,188,5.8,11.0,74,0.00,SCT,,0.08,612.0,WeatherDisplay:10.37,2013-09-09 20:20:00,
2013-09-09 15:25:00,83.9,74.7,29.71,SSW,195,3.1,8.1,74,0.00,SCT,,0.08,591.0,WeatherDisplay:10.37,2013-09-09 20:25:00,
2013-09-09 15:30:00,84.0,74.4,29.71,SE,146,3.1,6.0,73,0.00,SCT,,0.08,364.0,WeatherDisplay:10.37,2013-09-09 20:30:00,
2013-09-09 15:35:00,83.9,73.9,29.71,SSE,157,3.1,6.0,72,0.00,SCT,,0.08,248.0,WeatherDisplay:10.37,2013-09-09 20:35:00,
2013-09-09 15:40:00,84.3,74.3,29.71,SSW,209,3.4,5.0,72,0.00,SCT,,0.08,561.0,WeatherDisplay:10.37,2013-09-09 20:40:00,
2013-09-09 15:45:00,84.3,74.3,29.71,SSE,153,2.3,7.0,72,0.00,SCT,,0.08,230.0,WeatherDisplay:10.37,2013-09-09 20:45:00,
2013-09-09 15:50:00,84.3,73.9,29.71,SW,221,4.0,6.0,71,0.00,SCT,,0.08,323.0,WeatherDisplay:10.37,2013-09-09 20:50:00,
2013-09-09 15:55:00,84.2,73.8,29.71,WSW,238,4.7,7.0,71,0.00,SCT,,0.08,308.0,WeatherDisplay:10.37,2013-09-09 20:55:00,
2013-09-09 16:00:00,84.5,74.1,29.70,WSW,258,3.2,5.0,71,0.00,SCT,,0.08,659.0,WeatherDisplay:10.37,2013-09-09 21:00:00,
2013-09-09 16:05:00,85.4,74.1,29.71,SW,214,2.7,5.0,69,0.00,SCT,,0.08,185.0,WeatherDisplay:10.37,2013-09-09 21:05:00,
2013-09-09 16:10:00,85.6,73.8,29.70,South,180,3.8,6.0,68,0.00,SCT,,0.08,570.0,WeatherDisplay:10.37,2013-09-09 21:10:00,
2013-09-09 16:15:00,85.4,74.1,29.70,SSE,159,3.7,6.0,69,0.00,SCT,,0.08,482.0,WeatherDisplay:10.37,2013-09-09 21:15:00,
2013-09-09 16:20:00,85.7,74.4,29.71,West,281,3.0,6.0,69,0.00,SCT,,0.08,475.0,WeatherDisplay:10.37,2013-09-09 21:20:00,
2013-09-09 16:25:00,86.0,74.2,29.71,WSW,244,3.0,6.0,68,0.00,SCT,,0.08,174.0,WeatherDisplay:10.37,2013-09-09 21:25:00,
2013-09-09 16:30:00,85.5,74.2,29.71,SSW,196,1.1,2.3,69,0.00,SCT,,0.08,318.0,WeatherDisplay:10.37,2013-09-09 21:30:00,
2013-09-09 16:35:00,85.6,74.3,29.71,West,276,1.3,2.3,69,0.00,SCT,,0.08,255.0,WeatherDisplay:10.37,2013-09-09 21:35:00,
2013-09-09 16:40:00,86.1,74.3,29.71,SSW,202,0.2,3.5,68,0.00,SCT,,0.08,510.0,WeatherDisplay:10.37,2013-09-09 21:40:00,
2013-09-09 16:45:00,86.5,74.7,29.71,WNW,295,2.8,6.0,68,0.00,SCT,,0.08,417.0,WeatherDisplay:10.37,2013-09-09 21:45:00,
2013-09-09 16:50:00,86.5,74.2,29.71,West,269,3.5,6.0,67,0.00,SCT,,0.08,411.0,WeatherDisplay:10.37,2013-09-09 21:50:00,
2013-09-09 16:55:00,86.4,74.1,29.71,WSW,257,4.7,8.1,67,0.00,SCT,,0.08,315.0,WeatherDisplay:10.37,2013-09-09 21:55:00,
2013-09-09 17:00:00,86.3,74.5,29.71,WNW,287,1.0,3.5,68,0.00,SCT,,0.08,369.0,WeatherDisplay:10.37,2013-09-09 22:00:00,
2013-09-09 17:05:00,86.3,74.9,29.71,West,266,2.4,6.9,69,0.00,FEW,,0.08,278.0,WeatherDisplay:10.37,2013-09-09 22:05:00,
2013-09-09 17:10:00,85.7,73.9,29.72,WNW,289,2.8,5.0,68,0.00,FEW,,0.08,88.0,WeatherDisplay:10.37,2013-09-09 22:10:00,
2013-09-09 17:15:00,85.2,73.9,29.72,WNW,299,5.2,9.0,69,0.00,FEW,,0.08,104.0,WeatherDisplay:10.37,2013-09-09 22:15:00,
2013-09-09 17:20:00,84.5,73.6,29.72,WNW,286,5.0,9.2,70,0.00,FEW,,0.08,130.0,WeatherDisplay:10.37,2013-09-09 22:20:00,
2013-09-09 17:25:00,84.2,73.8,29.72,WNW,291,3.1,8.1,71,0.00,FEW,,0.08,227.0,WeatherDisplay:10.37,2013-09-09 22:25:00,
2013-09-09 17:30:00,84.2,73.8,29.72,WNW,292,2.3,4.6,71,0.00,FEW,,0.08,139.0,WeatherDisplay:10.37,2013-09-09 22:30:00,
2013-09-09 17:35:00,83.9,73.9,29.72,WNW,295,3.1,5.0,72,0.00,FEW,,0.08,86.0,WeatherDisplay:10.37,2013-09-09 22:35:00,
2013-09-09 17:40:00,83.6,73.6,29.73,WNW,296,3.1,5.0,72,0.00,FEW,,0.08,120.0,WeatherDisplay:10.37,2013-09-09 22:40:00,
2013-09-09 17:45:00,83.4,73.8,29.73,WNW,303,4.7,8.1,73,0.00,FEW,,0.08,264.0,WeatherDisplay:10.37,2013-09-09 22:45:00,
2013-09-09 17:50:00,83.4,73.8,29.73,WNW,301,2.2,4.6,73,0.00,FEW,,0.08,160.0,WeatherDisplay:10.37,2013-09-09 22:50:00,
2013-09-09 17:55:00,83.3,74.1,29.73,NNW,333,5.2,11.5,74,0.00,FEW,,0.08,148.0,WeatherDisplay:10.37,2013-09-09 22:55:00,
2013-09-09 18:00:00,81.8,73.9,29.74,NNW,331,3.8,7.0,77,0.00,FEW,,0.08,127.0,WeatherDisplay:10.37,2013-09-09 23:00:00,
2013-09-09 18:05:00,80.9,73.8,29.74,NNW,344,6.2,10.4,79,0.00,CLR,,0.08,100.0,WeatherDisplay:10.37,2013-09-09 23:05:00,
2013-09-09 18:10:00,80.1,73.7,29.74,NNW,332,3.7,6.0,81,0.00,CLR,,0.08,102.0,WeatherDisplay:10.37,2013-09-09 23:10:00,
2013-09-09 18:15:00,79.5,73.5,29.74,NNW,343,2.0,5.0,82,0.00,CLR,,0.08,84.0,WeatherDisplay:10.37,2013-09-09 23:15:00,
2013-09-09 18:20:00,79.1,73.5,29.74,NNE,28,3.9,6.0,83,0.00,CLR,,0.08,53.0,WeatherDisplay:10.37,2013-09-09 23:20:00,
2013-09-09 18:25:00,78.7,73.1,29.74,NNW,334,2.2,6.0,83,0.00,CLR,,0.08,51.0,WeatherDisplay:10.37,2013-09-09 23:25:00,
2013-09-09 18:30:00,78.2,73.0,29.74,NNE,15,1.7,4.0,84,0.00,CLR,,0.08,70.0,WeatherDisplay:10.37,2013-09-09 23:30:00,
2013-09-09 18:35:00,78.0,72.8,29.74,NNE,13,5.3,9.0,84,0.00,CLR,,0.08,67.0,WeatherDisplay:10.37,2013-09-09 23:35:00,
2013-09-09 18:40:00,77.7,72.5,29.74,NNW,333,2.7,6.0,84,0.00,CLR,,0.08,42.0,WeatherDisplay:10.37,2013-09-09 23:40:00,
2013-09-09 18:45:00,77.5,72.6,29.74,NNW,348,1.6,4.0,85,0.00,CLR,,0.08,49.0,WeatherDisplay:10.37,2013-09-09 23:45:00,
2013-09-09 18:50:00,77.3,72.4,29.74,NW,316,2.0,5.0,85,0.00,CLR,,0.08,81.0,WeatherDisplay:10.37,2013-09-09 23:50:00,
2013-09-09 18:55:00,77.2,72.7,29.74,NE,39,0.9,3.5,86,0.00,CLR,,0.08,74.0,WeatherDisplay:10.37,2013-09-09 23:55:00,
2013-09-09 19:00:00,77.2,72.3,29.74,North,5,1.7,5.0,85,0.00,CLR,,0.08,54.0,WeatherDisplay:10.37,2013-09-10 00:00:00,
2013-09-09 19:05:00,77.0,72.1,29.75,North,355,1.5,5.0,85,0.00,FEW,,0.08,42.0,WeatherDisplay:10.37,2013-09-10 00:05:00,
2013-09-09 19:10:00,76.9,72.4,29.75,North,5,2.2,4.0,86,0.00,FEW,,0.08,35.0,WeatherDisplay:10.37,2013-09-10 00:10:00,
2013-09-09 19:15:00,76.8,72.3,29.75,NNW,333,2.3,5.0,86,0.00,FEW,,0.08,30.0,WeatherDisplay:10.37,2013-09-10 00:15:00,
2013-09-09 19:20:00,76.7,72.2,29.75,North,355,1.8,3.5,86,0.00,FEW,,0.08,25.0,WeatherDisplay:10.37,2013-09-10 00:20:00,
2013-09-09 19:25:00,76.4,71.9,29.75,North,355,1.0,2.3,86,0.00,FEW,,0.08,12.0,WeatherDisplay:10.37,2013-09-10 00:25:00,
2013-09-09 19:30:00,76.1,71.6,29.75,North,5,0.3,1.2,86,0.00,FEW,,0.08,9.0,WeatherDisplay:10.37,2013-09-10 00:30:00,
2013-09-09 19:35:00,75.8,71.7,29.75,NNW,348,0.6,3.0,87,0.00,FEW,,0.08,5.0,WeatherDisplay:10.37,2013-09-10 00:35:00,
2013-09-09 19:40:00,75.6,71.8,29.76,NNW,347,0.9,2.3,88,0.00,FEW,,0.08,0.0,WeatherDisplay:10.37,2013-09-10 00:40:00,
2013-09-09 19:45:00,75.3,71.5,29.76,North,349,1.9,3.5,88,0.00,FEW,,0.08,0.0,WeatherDisplay:10.37,2013-09-10 00:45:00,
2013-09-09 19:50:00,74.9,71.1,29.76,North,349,0.0,1.2,88,0.00,FEW,,0.08,0.0,WeatherDisplay:10.37,2013-09-10 00:50:00,
2013-09-09 19:55:00,74.7,70.6,29.76,North,349,0.0,1.2,87,0.00,FEW,,0.08,0.0,WeatherDisplay:10.37,2013-09-10 00:55:00,
2013-09-09 20:00:00,74.5,70.7,29.76,North,349,0.0,0.0,88,0.00,FEW,,0.08,0.0,WeatherDisplay:10.37,2013-09-10 01:00:00,
2013-09-09 20:05:00,74.4,70.9,29.77,North,349,0.0,0.0,89,0.00,BKN,,0.08,0.0,WeatherDisplay:10.37,2013-09-10 01:05:00,
2013-09-09 20:10:00,74.3,70.8,29.77,North,349,0.0,0.0,89,0.00,BKN,,0.08,0.0,WeatherDisplay:10.37,2013-09-10 01:10:00,
2013-09-09 20:15:00,74.2,70.7,29.77,North,349,0.0,0.0,89,0.00,BKN,,0.08,0.0,WeatherDisplay:10.37,2013-09-10 01:15:00,
2013-09-09 20:20:00,74.1,70.6,29.77,North,349,0.0,0.0,89,0.00,BKN,,0.08,0.0,WeatherDisplay:10.37,2013-09-10 01:20:00,
2013-09-09 20:25:00,73.7,69.6,29.77,North,349,0.0,0.0,87,0.00,BKN,,0.08,0.0,WeatherDisplay:10.37,2013-09-10 01:25:00,
2013-09-09 20:30:00,73.5,70.7,29.77,North,349,0.0,0.0,91,0.00,BKN,,0.08,0.0,WeatherDisplay:10.37,2013-09-10 01:30:00,
2013-09-09 20:35:00,73.1,70.0,29.78,North,349,0.0,0.0,90,0.00,BKN,,0.08,0.0,WeatherDisplay:10.37,2013-09-10 01:35:00,
2013-09-09 20:40:00,73.3,70.8,29.78,North,349,0.0,0.0,92,0.00,BKN,,0.08,0.0,WeatherDisplay:10.37,2013-09-10 01:40:00,
2013-09-09 20:45:00,73.1,70.6,29.78,North,349,0.0,0.0,92,0.00,BKN,,0.08,0.0,WeatherDisplay:10.37,2013-09-10 01:45:00,
2013-09-09 20:50:00,73.6,71.4,29.78,North,349,0.4,1.2,93,0.00,BKN,,0.08,0.0,WeatherDisplay:10.37,2013-09-10 01:50:00,
2013-09-09 20:55:00,73.7,71.5,29.78,North,349,0.6,3.0,93,0.00,BKN,,0.08,0.0,WeatherDisplay:10.37,2013-09-10 01:55:00,
2013-09-09 21:00:00,73.9,71.4,29.79,West,268,0.0,1.2,92,0.00,BKN,,0.08,0.0,WeatherDisplay:10.37,2013-09-10 02:00:00,
2013-09-09 21:05:00,74.2,71.7,29.79,West,280,2.7,5.0,92,0.00,FEW,,0.08,0.0,WeatherDisplay:10.37,2013-09-10 02:05:00,
2013-09-09 21:10:00,74.4,71.6,29.79,WSW,240,2.6,4.0,91,0.00,FEW,,0.08,0.0,WeatherDisplay:10.37,2013-09-10 02:10:00,
2013-09-09 21:15:00,74.5,71.4,29.79,SW,221,2.8,6.0,90,0.00,FEW,,0.08,0.0,WeatherDisplay:10.37,2013-09-10 02:15:00,
2013-09-09 21:20:00,74.6,71.1,29.80,WSW,246,5.2,9.0,89,0.00,FEW,,0.08,0.0,WeatherDisplay:10.37,2013-09-10 02:20:00,
2013-09-09 21:25:00,74.6,70.5,29.80,WSW,258,4.5,10.0,87,0.00,FEW,,0.08,0.0,WeatherDisplay:10.37,2013-09-10 02:25:00,
2013-09-09 21:30:00,74.6,70.5,29.80,West,280,3.2,8.1,87,0.00,FEW,,0.08,0.0,WeatherDisplay:10.37,2013-09-10 02:30:00,
2013-09-09 21:35:00,74.4,69.9,29.80,West,281,5.7,14.0,86,0.00,FEW,,0.08,0.0,WeatherDisplay:10.37,2013-09-10 02:35:00,
2013-09-09 21:40:00,74.2,69.4,29.80,WNW,295,6.4,9.0,85,0.00,FEW,,0.08,0.0,WeatherDisplay:10.37,2013-09-10 02:40:00,
2013-09-09 21:45:00,74.1,69.0,29.80,WNW,293,4.1,6.0,84,0.00,FEW,,0.08,0.0,WeatherDisplay:10.37,2013-09-10 02:45:00,
2013-09-09 21:50:00,73.9,69.1,29.80,WNW,287,5.8,8.1,85,0.00,FEW,,0.08,0.0,WeatherDisplay:10.37,2013-09-10 02:50:00,
2013-09-09 21:55:00,73.7,68.9,29.81,WNW,291,5.4,9.0,85,0.00,FEW,,0.08,0.0,WeatherDisplay:10.37,2013-09-10 02:55:00,
2013-09-09 22:00:00,73.5,68.7,29.81,West,277,3.9,6.0,85,0.00,FEW,,0.08,0.0,WeatherDisplay:10.37,2013-09-10 03:00:00,
2013-09-09 22:05:00,73.4,68.6,29.81,WSW,250,3.7,7.0,85,0.00,FEW,,0.08,0.0,WeatherDisplay:10.37,2013-09-10 03:05:00,
2013-09-09 22:10:00,73.2,68.8,29.81,WNW,290,1.7,3.5,86,0.00,FEW,,0.08,0.0,WeatherDisplay:10.37,2013-09-10 03:10:00,
2013-09-09 22:15:00,72.9,68.5,29.81,WNW,286,4.0,7.0,86,0.00,FEW,,0.08,0.0,WeatherDisplay:10.37,2013-09-10 03:15:00,
2013-09-09 22:20:00,72.7,68.6,29.81,WNW,292,3.1,5.8,87,0.00,FEW,,0.08,0.0,WeatherDisplay:10.37,2013-09-10 03:20:00,
2013-09-09 22:25:00,72.4,68.6,29.81,WNW,288,2.9,7.0,88,0.00,FEW,,0.08,0.0,WeatherDisplay:10.37,2013-09-10 03:25:00,
2013-09-09 22:30:00,72.2,68.4,29.81,WNW,296,1.6,3.0,88,0.00,FEW,,0.08,0.0,WeatherDisplay:10.37,2013-09-10 03:30:00,
2013-09-09 22:35:00,72.0,68.2,29.81,West,279,1.8,4.0,88,0.00,FEW,,0.08,0.0,WeatherDisplay:10.37,2013-09-10 03:35:00,
2013-09-09 22:40:00,71.8,68.1,29.82,WNW,290,4.5,10.4,88,0.00,FEW,,0.08,0.0,WeatherDisplay:10.37,2013-09-10 03:40:00,
2013-09-09 22:45:00,71.7,67.6,29.82,WNW,302,6.5,11.0,87,0.00,FEW,,0.08,0.0,WeatherDisplay:10.37,2013-09-10 03:45:00,
2013-09-09 22:50:00,71.7,67.6,29.82,West,269,5.8,8.0,87,0.00,FEW,,0.08,0.0,WeatherDisplay:10.37,2013-09-10 03:50:00,
2013-09-09 22:55:00,71.6,67.2,29.82,West,276,4.0,7.0,86,0.00,FEW,,0.08,0.0,WeatherDisplay:10.37,2013-09-10 03:55:00,
2013-09-09 23:00:00,71.5,67.4,29.83,West,274,7.2,10.0,87,0.00,FEW,,0.08,0.0,WeatherDisplay:10.37,2013-09-10 04:00:00,
2013-09-09 23:01:00,71.4,67.3,29.83,WNW,292,7.4,12.0,87,0.00,CLR,,0.08,0.0,WeatherDisplay:10.37,2013-09-10 04:01:00,
2013-09-09 23:05:00,71.3,67.2,29.83,WNW,286,3.0,12.0,87,0.00,CLR,CLR,0.08,0.0,WeatherDisplay:10.37,2013-09-10 04:05:00,
2013-09-09 23:08:00,71.1,67.0,29.83,WNW,298,5.8,9.2,87,0.00,CLR,,0.08,0.0,WeatherDisplay:10.37,2013-09-10 04:08:00,
2013-09-09 23:13:00,70.9,67.2,29.83,WNW,302,2.9,9.2,88,0.00,CLR,,0.08,0.0,WeatherDisplay:10.37,2013-09-10 04:13:00,
2013-09-09 23:14:00,70.9,66.8,29.83,WNW,296,4.4,7.0,87,0.00,CLR,,0.08,0.0,WeatherDisplay:10.37,2013-09-10 04:14:00,
2013-09-09 23:19:00,70.7,67.0,29.82,West,271,6.6,10.4,88,0.00,CLR,,0.08,0.0,WeatherDisplay:10.37,2013-09-10 04:19:00,
2013-09-09 23:20:00,70.7,67.0,29.82,West,271,6.6,10.4,88,0.00,CLR,,0.08,0.0,WeatherDisplay:10.37,2013-09-10 04:20:00,
2013-09-09 23:25:00,70.5,66.8,29.82,West,277,4.6,9.2,88,0.00,CLR,,0.08,0.0,WeatherDisplay:10.37,2013-09-10 04:25:00,
2013-09-09 23:30:00,70.3,66.9,29.82,WNW,289,2.7,11.0,89,0.00,CLR,,0.08,0.0,WeatherDisplay:10.37,2013-09-10 04:30:00,
2013-09-09 23:31:00,70.2,66.8,29.82,WNW,289,5.0,15.0,89,0.00,CLR,,0.08,0.0,WeatherDisplay:10.37,2013-09-10 04:31:00,
2013-09-09 23:36:00,70.1,66.7,29.82,WNW,296,4.4,9.2,89,0.00,CLR,,0.08,0.0,WeatherDisplay:10.37,2013-09-10 04:36:00,
2013-09-09 23:41:00,69.9,66.5,29.82,NW,325,5.7,8.1,89,0.00,CLR,,0.08,0.0,WeatherDisplay:10.37,2013-09-10 04:41:00,
2013-09-09 23:46:00,69.7,66.6,29.82,WNW,296,6.7,9.2,90,0.00,CLR,,0.08,0.0,WeatherDisplay:10.37,2013-09-10 04:46:00,
2013-09-09 23:51:00,69.6,66.5,29.82,WNW,300,2.7,5.0,90,0.00,CLR,,0.08,0.0,WeatherDisplay:10.37,2013-09-10 04:51:00,
2013-09-09 23:56:00,69.5,66.4,29.82,NW,309,4.0,6.0,90,0.00,CLR,,0.08,0.0,WeatherDisplay:10.37,2013-09-10 04:56:00,